Powrót do katalogu

THORAD AGENA D DEB

AktywnyLEO
NORAD 5026·DEBRIS·🇺🇸 United States

Wystrzelony Apr 8, 1970 z Vandenberg Space Force Base

Loading…

Następne Przeloty

TLE

Source: Space-Track
1 05026U 70025JA  26230.23857418  .00001068  00000-0  11143-2 0  9995
2 05026 100.1812 142.7075 0033090 288.0790 224.7880 13.77784027793133

Śledź THORAD AGENA D DEB w czasie rzeczywistym z AllMySat

Download on the App Store